DW4879 Weather Reports


Display with metric or nautical units.
time (UTC)temp
F
wind
direction
speed
MPH
gust
MPH
rain 1hr
in
rain 24hr
in
rain mn
in
humidity
%
barometer
mb
20220529050009 70 225 8.0 15.0 0.00 0.00 0.00 16 1007.0
20220529045509 70 225 8.0 13.0 0.00 0.00 0.00 16 1007.0
20220529045009 70 225 9.0 10.0 0.00 0.00 0.00 17 1007.0
20220529044508 70 225 9.0 14.0 0.00 0.00 0.00 16 1007.0
20220529044007 71 225 8.0 16.0 0.00 0.00 0.00 17 1007.0
20220529043511 71 225 10.0 15.0 0.00 0.00 0.00 16 1007.0
20220529043010 71 225 8.0 17.0 0.00 0.00 0.00 16 1007.0
20220529042509 71 225 7.0 11.0 0.00 0.00 0.00 16 1007.0
20220529042009 71 225 8.0 13.0 0.00 0.00 0.00 16 1007.0
20220529041508 71 225 7.0 14.0 0.00 0.00 0.00 15 1007.0
20220529041007 71 225 0.0 13.0 0.00 0.00 0.00 16 1007.0
20220529040512 72 225 0.0 13.0 0.00 0.00 0.00 15 1007.0
20220529040010 72 225 7.0 9.0 0.00 0.00 0.00 15 1006.6
20220529035509 72 225 8.0 12.0 0.00 0.00 0.00 15 1006.6
20220529035008 72 225 8.0 11.0 0.00 0.00 0.00 15 1006.6
20220529034507 72 225 9.0 13.0 0.00 0.00 0.00 15 1006.6
20220529034006 72 225 8.0 11.0 0.00 0.00 0.00 15 1006.3
20220529033505 73 225 6.0 9.0 0.00 0.00 0.00 16 1006.3
20220529033010 73 225 8.0 11.0 0.00 0.00 0.00 16 1006.3
20220529032508 73 225 8.0 13.0 0.00 0.00 0.00 16 1006.3
20220529032006 73 225 7.0 17.0 0.00 0.00 0.00 16 1006.3
20220529031506 73 225 7.0 8.0 0.00 0.00 0.00 15 1006.3
20220529031005 74 225 8.0 18.0 0.00 0.00 0.00 15 1006.0
20220529030510 74 225 8.0 10.0 0.00 0.00 0.00 16 1006.0
20220529030006 74 225 8.0 10.0 0.00 0.00 0.00 15 1006.0
20220529025515 74 225 9.0 17.0 0.00 0.00 0.00 14 1006.0
20220529025005 74 225 8.0 18.0 0.00 0.00 0.00 13 1006.0
20220529024510 74 225 8.0 14.0 0.00 0.00 0.00 15 1006.0
20220529024008 75 225 8.0 11.0 0.00 0.00 0.00 15 1005.6
20220529023507 75 225 8.0 10.0 0.00 0.00 0.00 14 1005.6
20220529023006 75 225 8.0 15.0 0.00 0.00 0.00 13 1006.0
20220529022505 75 225 9.0 10.0 0.00 0.00 0.00 13 1006.0
20220529022011 76 225 9.0 14.0 0.00 0.00 0.00 13 1005.6
20220529021510 76 315 9.0 21.0 0.00 0.00 0.00 13 1005.6
20220529021010 76 225 0.0 13.0 0.00 0.00 0.00 13 1005.6
20220529020509 77 225 0.0 18.0 0.00 0.00 0.00 12 1005.6
20220529020009 77 225 9.0 22.0 0.00 0.00 0.00 11 1005.6
20220529015509 77 225 8.0 10.0 0.00 0.00 0.00 13 1005.6
20220529015008 78 225 8.0 11.0 0.00 0.00 0.00 12 1005.3
20220529014508 78 315 9.0 17.0 0.00 0.00 0.00 11 1005.3
20220529014008 78 225 8.0 16.0 0.00 0.00 0.00 11 1004.9
20220529013506 79 225 9.0 17.0 0.00 0.00 0.00 11 1004.9
20220529013011 79 225 10.0 14.0 0.00 0.00 0.00 11 1005.3
20220529012510 79 225 9.0 21.0 0.00 0.00 0.00 10 1005.3
20220529012009 79 225 9.0 15.0 0.00 0.00 0.00 10 1005.3
20220529011509 79 225 7.0 8.0 0.00 0.00 0.00 11 1005.3
20220529011007 79 315 8.0 12.0 0.00 0.00 0.00 10 1005.3
20220529010507 79 225 7.0 10.0 0.00 0.00 0.00 11 1005.3
20220529010005 79 315 9.0 15.0 0.00 0.00 0.00 9 1004.9
20220529005510 80 315 8.0 12.0 0.00 0.00 0.00 11 1004.9
20220529005010 80 225 9.0 16.0 0.00 0.00 0.00 9 1005.3
20220529004510 80 225 8.0 14.0 0.00 0.00 0.00 9 1005.3
20220529004009 80 315 9.0 14.0 0.00 0.00 0.00 10 1004.9
20220529003509 80 315 9.0 20.0 0.00 0.00 0.00 9 1004.9
20220529003008 81 225 10.0 17.0 0.00 0.00 0.00 10 1004.9
20220529002507 81 315 10.0 13.0 0.00 0.00 0.00 11 1004.9
20220529002006 81 225 9.0 17.0 0.00 0.00 0.00 11 1004.9
20220529001505 82 315 8.0 12.0 0.00 0.00 0.00 11 1004.9
20220529001011 82 225 0.0 15.0 0.00 0.00 0.00 11 1005.3
20220529000510 82 225 0.0 12.0 0.00 0.00 0.00 11 1005.3
20220529000007 82 225 8.0 14.0 0.00 0.00 0.00 11 1005.3
20220528235506 82 315 8.0 15.0 0.00 0.00 0.00 11 1005.3
20220528235010 82 225 9.0 15.0 0.00 0.00 0.00 11 1005.3
20220528234509 82 225 7.0 10.0 0.00 0.00 0.00 12 1005.3
20220528234009 82 225 7.0 10.0 0.00 0.00 0.00 13 1005.6
20220528233507 82 225 7.0 15.0 0.00 0.00 0.00 11 1005.6
20220528233007 82 225 6.0 8.0 0.00 0.00 0.00 12 1005.6
20220528232506 82 315 7.0 12.0 0.00 0.00 0.00 11 1005.6
20220528232005 82 225 6.0 10.0 0.00 0.00 0.00 11 1006.0
20220528231510 82 225 9.0 10.0 0.00 0.00 0.00 11 1006.0
20220528231010 82 225 10.0 23.0 0.00 0.00 0.00 10 1006.0
20220528230509 82 315 9.0 13.0 0.00 0.00 0.00 11 1006.0
20220528230008 83 225 8.0 15.0 0.00 0.00 0.00 11 1006.3
20220528225507 83 225 7.0 10.0 0.00 0.00 0.00 12 1006.3
20220528225006 82 225 7.0 14.0 0.00 0.00 0.00 11 1006.3
20220528224505 82 315 7.0 13.0 0.00 0.00 0.00 12 1006.3
20220528224010 83 315 8.0 14.0 0.00 0.00 0.00 11 1006.6
20220528223510 83 315 8.0 17.0 0.00 0.00 0.00 11 1006.6
20220528223009 83 225 7.0 15.0 0.00 0.00 0.00 12 1006.6
20220528222509 83 225 9.0 12.0 0.00 0.00 0.00 13 1006.6
20220528222008 83 225 8.0 16.0 0.00 0.00 0.00 13 1007.0
20220528221507 83 315 8.0 10.0 0.00 0.00 0.00 11 1007.0
20220528221007 83 225 0.0 13.0 0.00 0.00 0.00 12 1007.0
20220528220511 83 225 0.0 24.0 0.00 0.00 0.00 10 1007.0
20220528220009 83 225 10.0 11.0 0.00 0.00 0.00 11 1007.0
20220528215508 84 315 10.0 16.0 0.00 0.00 0.00 11 1007.0
20220528215007 83 225 9.0 14.0 0.00 0.00 0.00 11 1007.3
20220528214506 83 225 10.0 14.0 0.00 0.00 0.00 11 1007.3
20220528214006 83 225 12.0 25.0 0.00 0.00 0.00 11 1007.7
20220528213505 83 225 11.0 23.0 0.00 0.00 0.00 10 1007.7
20220528213011 83 225 13.0 18.0 0.00 0.00 0.00 10 1007.3
20220528212509 84 225 15.0 20.0 0.00 0.00 0.00 9 1007.3
20220528212008 85 225 16.0 25.0 0.00 0.00 0.00 8 1007.0
20220528211507 85 225 14.0 22.0 0.00 0.00 0.00 9 1007.0
20220528211006 85 225 11.0 15.0 0.00 0.00 0.00 9 1007.3
20220528210509 85 225 14.0 13.0 0.00 0.00 0.00 12 1007.3
20220528210008 85 225 9.0 16.0 0.00 0.00 0.00 12 1007.7
20220528205507 85 225 10.0 21.0 0.00 0.00 0.00 9 1007.7
20220528205006 85 225 10.0 11.0 0.00 0.00 0.00 13 1008.0
20220528204510 85 225 10.0 17.0 0.00 0.00 0.00 11 1008.0
20220528204010 84 225 11.0 10.0 0.00 0.00 0.00 13 1008.3
20220528203510 84 225 12.0 19.0 0.00 0.00 0.00 11 1008.3
20220528203009 84 225 9.0 23.0 0.00 0.00 0.00 11 1008.7
20220528202508 84 225 13.0 18.0 0.00 0.00 0.00 11 1008.7
20220528202007 84 225 10.0 16.0 0.00 0.00 0.00 11 1008.7
20220528201506 84 225 8.0 15.0 0.00 0.00 0.00 13 1008.7
20220528201005 84 225 0.0 8.0 0.00 0.00 0.00 12 1009.0
20220528200510 83 225 0.0 22.0 0.00 0.00 0.00 13 1009.0
20220528200007 83 225 13.0 19.0 0.00 0.00 0.00 11 1009.4
20220528195506 82 225 12.0 15.0 0.00 0.00 0.00 12 1009.4
20220528195012 82 225 11.0 18.0 0.00 0.00 0.00 13 1009.7
20220528194511 81 225 10.0 11.0 0.00 0.00 0.00 14 1009.7
20220528194010 81 225 11.0 18.0 0.00 0.00 0.00 13 1009.7
20220528193509 81 225 11.0 16.0 0.00 0.00 0.00 14 1009.7
20220528193009 82 225 12.0 15.0 0.00 0.00 0.00 13 1010.0
20220528192507 82 225 11.0 27.0 0.00 0.00 0.00 12 1010.0
20220528192007 82 225 8.0 12.0 0.00 0.00 0.00 15 1010.0
20220528191507 81 225 8.0 13.0 0.00 0.00 0.00 14 1010.0
20220528191006 81 225 10.0 15.0 0.00 0.00 0.00 15 1010.4
20220528190505 81 225 11.0 10.0 0.00 0.00 0.00 13 1010.4
20220528190010 81 225 10.0 17.0 0.00 0.00 0.00 13 1010.4
20220528185509 81 225 10.0 11.0 0.00 0.00 0.00 14 1010.4
20220528185007 81 225 9.0 13.0 0.00 0.00 0.00 15 1010.7
20220528184506 80 225 12.0 10.0 0.00 0.00 0.00 16 1010.7
20220528184011 80 225 11.0 18.0 0.00 0.00 0.00 16 1011.0
20220528183510 80 225 11.0 12.0 0.00 0.00 0.00 15 1011.0
20220528183010 80 225 10.0 11.0 0.00 0.00 0.00 14 1011.0
20220528182508 81 225 12.0 14.0 0.00 0.00 0.00 14 1011.0
20220528182006 81 225 12.0 21.0 0.00 0.00 0.00 14 1011.4
20220528181511 81 225 12.0 23.0 0.00 0.00 0.00 14 1011.4
20220528181010 80 225 0.0 14.0 0.00 0.00 0.00 14 1011.4
20220528180509 80 225 0.0 17.0 0.00 0.00 0.00 14 1011.4
20220528180006 80 225 11.0 13.0 0.00 0.00 0.00 16 1011.7
20220528175505 80 225 13.0 20.0 0.00 0.00 0.00 16 1011.7
20220528175011 80 225 10.0 16.0 0.00 0.00 0.00 16 1011.7
20220528174510 79 225 10.0 10.0 0.00 0.00 0.00 18 1011.7
20220528174009 78 225 8.0 16.0 0.00 0.00 0.00 15 1012.1
20220528173508 78 225 9.0 13.0 0.00 0.00 0.00 18 1012.1
20220528173008 78 225 12.0 19.0 0.00 0.00 0.00 16 1012.1
20220528172506 78 225 13.0 22.0 0.00 0.00 0.00 16 1012.1
20220528172006 78 225 14.0 27.0 0.00 0.00 0.00 16 1011.7
20220528171510 79 225 11.0 24.0 0.00 0.00 0.00 15 1011.7
20220528171009 80 225 8.0 15.0 0.00 0.00 0.00 15 1012.1
20220528170508 80 225 10.0 16.0 0.00 0.00 0.00 17 1012.1
20220528170007 81 225 11.0 13.0 0.00 0.00 0.00 15 1011.7
20220528165507 82 225 8.0 15.0 0.00 0.00 0.00 14 1011.7
20220528165006 81 225 6.0 15.0 0.00 0.00 0.00 13 1011.7
20220528164511 81 225 8.0 10.0 0.00 0.00 0.00 14 1011.7
20220528164011 81 225 7.0 11.0 0.00 0.00 0.00 13 1012.1
20220528163509 81 225 6.0 10.0 0.00 0.00 0.00 12 1012.1
20220528163009 81 225 7.0 6.0 0.00 0.00 0.00 17 1011.7
20220528162508 81 225 6.0 10.0 0.00 0.00 0.00 13 1011.7
20220528162008 81 225 3.0 7.0 0.00 0.00 0.00 13 1012.1
20220528161507 81 225 4.0 3.0 0.00 0.00 0.00 14 1012.1
20220528161006 80 225 0.0 7.0 0.00 0.00 0.00 14 1012.4
20220528160506 79 315 0.0 0.0 0.00 0.00 0.00 14 1012.4
20220528160009 79 315 3.0 2.0 0.00 0.00 0.00 17 1012.7
20220528155508 78 45 2.0 4.0 0.00 0.00 0.00 16 1012.7
20220528155007 77 45 2.0 3.0 0.00 0.00 0.00 16 1013.1
20220528154506 76 45 4.0 3.0 0.00 0.00 0.00 16 1013.1
20220528154005 76 45 5.0 5.0 0.00 0.00 0.00 17 1013.1
20220528153510 75 45 6.0 8.0 0.00 0.00 0.00 18 1013.1
20220528153009 74 45 6.0 6.0 0.00 0.00 0.00 18 1013.1
20220528152508 74 45 6.0 8.0 0.00 0.00 0.00 19 1013.1
20220528152008 73 135 5.0 8.0 0.00 0.00 0.00 18 1013.8
20220528151507 72 135 5.0 7.0 0.00 0.00 0.00 20 1013.8
20220528151006 71 45 6.0 6.0 0.00 0.00 0.00 20 1013.8
20220528150506 71 45 7.0 8.0 0.00 0.00 0.00 20 1013.8
20220528150005 70 45 7.0 8.0 0.00 0.00 0.00 22 1013.8
20220528145510 69 45 7.0 9.0 0.00 0.00 0.00 22 1013.8
20220528145009 69 45 7.0 9.0 0.00 0.00 0.00 22 1013.8
20220528144509 68 45 8.0 9.0 0.00 0.00 0.00 23 1013.8
20220528144009 67 45 6.0 10.0 0.00 0.00 0.00 24 1014.1
20220528143507 66 45 6.0 9.0 0.00 0.00 0.00 25 1014.1
20220528143007 66 45 8.0 10.0 0.00 0.00 0.00 25 1014.1
20220528142506 65 45 7.0 9.0 0.00 0.00 0.00 26 1014.1
20220528142011 65 45 8.0 11.0 0.00 0.00 0.00 25 1014.4
20220528141511 65 45 9.0 12.0 0.00 0.00 0.00 26 1014.4
20220528141009 64 45 0.0 10.0 0.00 0.00 0.00 27 1014.4
20220528140508 64 45 0.0 10.0 0.00 0.00 0.00 27 1014.4
20220528140008 64 45 8.0 11.0 0.00 0.00 0.00 27 1014.4
20220528135508 63 45 8.0 10.0 0.00 0.00 0.00 26 1014.4
20220528135007 63 45 8.0 12.0 0.00 0.00 0.00 26 1014.4
20220528134506 63 45 8.0 10.0 0.00 0.00 0.00 26 1014.4
20220528134011 63 45 8.0 10.0 0.00 0.00 0.00 25 1014.4
20220528133510 62 45 8.0 8.0 0.00 0.00 0.00 25 1014.4
20220528133009 62 45 8.0 10.0 0.00 0.00 0.00 26 1014.4
20220528132508 61 45 8.0 9.0 0.00 0.00 0.00 25 1014.4
20220528132007 61 45 8.0 9.0 0.00 0.00 0.00 26 1014.8
20220528131506 61 45 8.0 10.0 0.00 0.00 0.00 26 1014.8
20220528131005 60 45 7.0 8.0 0.00 0.00 0.00 25 1014.4
20220528130510 60 45 7.0 9.0 0.00 0.00 0.00 26 1014.4
20220528130009 60 45 7.0 8.0 0.00 0.00 0.00 25 1014.4
20220528125508 60 45 6.0 8.0 0.00 0.00 0.00 25 1014.4
20220528125007 60 45 5.0 7.0 0.00 0.00 0.00 24 1014.4
20220528124506 59 45 6.0 7.0 0.00 0.00 0.00 24 1014.4
20220528124011 59 45 6.0 9.0 0.00 0.00 0.00 25 1014.8
20220528123509 58 45 5.0 7.0 0.00 0.00 0.00 24 1014.8
20220528123008 57 45 5.0 6.0 0.00 0.00 0.00 25 1014.4
20220528122507 57 45 5.0 6.0 0.00 0.00 0.00 26 1014.4
20220528122007 57 45 4.0 7.0 0.00 0.00 0.00 26 1014.8
20220528121506 57 45 4.0 5.0 0.00 0.00 0.00 26 1014.8
20220528121005 57 45 0.0 6.0 0.00 0.00 0.00 25 1014.8
20220528120510 57 45 0.0 6.0 0.00 0.00 0.00 25 1014.8
20220528120010 57 45 5.0 6.0 0.00 0.00 0.00 25 1014.8
20220528115509 57 45 5.0 6.0 0.00 0.00 0.00 25 1014.8
20220528115009 57 45 5.0 6.0 0.00 0.00 0.00 25 1014.4
20220528114508 57 45 4.0 5.0 0.00 0.00 0.00 26 1014.4
20220528114007 57 45 4.0 5.0 0.00 0.00 0.00 26 1014.8
20220528113506 57 45 4.0 5.0 0.00 0.00 0.00 26 1014.8
20220528113010 58 45 4.0 5.0 0.00 0.00 0.00 26 1014.4
20220528112510 58 45 4.0 4.0 0.00 0.00 0.00 25 1014.4
20220528112009 58 45 4.0 6.0 0.00 0.00 0.00 24 1014.4
20220528111509 59 45 4.0 5.0 0.00 0.00 0.00 24 1014.4
20220528111007 59 45 5.0 5.0 0.00 0.00 0.00 24 1014.4
20220528110507 59 45 5.0 6.0 0.00 0.00 0.00 24 1014.4
20220528110006 59 45 5.0 6.0 0.00 0.00 0.00 24 1014.4
20220528105510 59 45 5.0 7.0 0.00 0.00 0.00 23 1014.4
20220528105010 59 45 5.0 7.0 0.00 0.00 0.00 24 1014.4
20220528104509 59 45 5.0 6.0 0.00 0.00 0.00 23 1014.4
20220528104008 59 45 4.0 6.0 0.00 0.00 0.00 23 1014.4
20220528103507 58 45 5.0 6.0 0.00 0.00 0.00 24 1014.4
20220528103007 58 45 6.0 6.0 0.00 0.00 0.00 24 1014.4
20220528102506 58 45 5.0 6.0 0.00 0.00 0.00 24 1014.4
20220528102005 58 45 5.0 6.0 0.00 0.00 0.00 24 1014.4
20220528101510 57 45 4.0 5.0 0.00 0.00 0.00 26 1014.4
20220528101009 57 45 0.0 7.0 0.00 0.00 0.00 27 1014.4
20220528100507 57 45 0.0 6.0 0.00 0.00 0.00 28 1014.4
20220528100009 58 45 2.0 4.0 0.00 0.00 0.00 28 1014.4
20220528095508 57 45 1.0 0.0 0.00 0.00 0.00 29 1014.4
20220528095008 58 45 3.0 3.0 0.00 0.00 0.00 27 1014.4
20220528094506 58 45 4.0 4.0 0.00 0.00 0.00 27 1014.4
20220528094006 58 45 4.0 5.0 0.00 0.00 0.00 28 1014.4
20220528093510 59 45 3.0 5.0 0.00 0.00 0.00 27 1014.4
20220528093008 59 45 1.0 3.0 0.00 0.00 0.00 27 1014.4
20220528092507 59 45 1.0 1.0 0.00 0.00 0.00 28 1014.4
20220528092007 59 45 2.0 3.0 0.00 0.00 0.00 28 1014.4
20220528091512 60 45 4.0 4.0 0.00 0.00 0.00 28 1014.4
20220528091011 61 45 2.0 4.0 0.00 0.00 0.00 27 1014.4
20220528090510 61 315 1.0 1.0 0.00 0.00 0.00 26 1014.4
20220528090008 61 315 1.0 2.0 0.00 0.00 0.00 23 1014.4
20220528085507 61 315 0.0 0.0 0.00 0.00 0.00 23 1014.4
20220528085006 62 315 0.0 0.0 0.00 0.00 0.00 23 1014.4
20220528084506 62 315 0.0 0.0 0.00 0.00 0.00 23 1014.4
20220528084011 62 315 1.0 0.0 0.00 0.00 0.00 23 1014.4
20220528083510 63 315 0.0 3.0 0.00 0.00 0.00 22 1014.4
20220528083009 63 315 1.0 0.0 0.00 0.00 0.00 21 1014.4
20220528082509 63 315 1.0 4.0 0.00 0.00 0.00 23 1014.4
20220528082009 63 315 1.0 0.0 0.00 0.00 0.00 21 1014.4
20220528081508 63 315 2.0 3.0 0.00 0.00 0.00 21 1014.4
20220528081007 63 315 0.0 3.0 0.00 0.00 0.00 20 1014.4
20220528080507 64 315 0.0 0.0 0.00 0.00 0.00 21 1014.4
20220528080011 64 315 0.0 0.0 0.00 0.00 0.00 22 1014.4
20220528075509 64 315 1.0 0.0 0.00 0.00 0.00 22 1014.4
20220528075009 64 315 2.0 2.0 0.00 0.00 0.00 21 1014.4
20220528074507 64 315 3.0 3.0 0.00 0.00 0.00 20 1014.4
20220528074006 64 315 3.0 4.0 0.00 0.00 0.00 19 1014.4
20220528073506 64 315 2.0 3.0 0.00 0.00 0.00 19 1014.4
20220528073010 64 315 2.0 2.0 0.00 0.00 0.00 19 1014.4
20220528072509 65 315 1.0 3.0 0.00 0.00 0.00 18 1014.4
20220528072008 65 315 2.0 3.0 0.00 0.00 0.00 19 1014.4
20220528071508 65 315 3.0 5.0 0.00 0.00 0.00 18 1014.4
20220528071006 65 315 3.0 4.0 0.00 0.00 0.00 19 1014.4
20220528070506 65 315 3.0 4.0 0.00 0.00 0.00 19 1014.4
20220528070011 65 315 3.0 5.0 0.00 0.00 0.00 19 1014.4
20220528065510 65 315 1.0 4.0 0.00 0.00 0.00 20 1014.4
20220528065009 65 315 3.0 2.0 0.00 0.00 0.00 20 1014.4
20220528064508 65 225 2.0 5.0 0.00 0.00 0.00 18 1014.4
20220528064007 66 225 1.0 3.0 0.00 0.00 0.00 18 1014.8
20220528063507 66 225 0.0 1.0 0.00 0.00 0.00 18 1014.8
20220528063006 66 225 1.0 1.0 0.00 0.00 0.00 18 1014.4
20220528062511 66 225 1.0 2.0 0.00 0.00 0.00 18 1014.4
20220528062010 66 225 1.0 1.0 0.00 0.00 0.00 18 1014.8
20220528061510 66 225 2.0 3.0 0.00 0.00 0.00 18 1014.8
20220528061009 66 225 0.0 3.0 0.00 0.00 0.00 18 1014.4
20220528060508 67 225 0.0 0.0 0.00 0.00 0.00 18 1014.4
20220528060007 67 225 1.0 5.0 0.00 0.00 0.00 18 1014.4
20220528055510 67 225 1.0 1.0 0.00 0.00 0.00 19 1014.4
20220528055010 67 225 1.0 4.0 0.00 0.00 0.00 18 1014.8
20220528054510 68 225 1.0 2.0 0.00 0.00 0.00 18 1014.8
20220528054009 68 225 0.0 3.0 0.00 0.00 0.00 18 1014.8
20220528053508 68 225 1.0 1.0 0.00 0.00 0.00 18 1014.8
20220528053007 68 225 3.0 4.0 0.00 0.00 0.00 16 1014.8
20220528052506 69 315 3.0 4.0 0.00 0.00 0.00 17 1014.8
20220528052006 69 315 3.0 3.0 0.00 0.00 0.00 16 1014.4
20220528051511 68 315 4.0 5.0 0.00 0.00 0.00 16 1014.4
20220528051005 68 315 3.0 6.0 0.00 0.00 0.00 16 1014.8
20220528050510 68 315 2.0 7.0 0.00 0.00 0.00 17 1014.8